Location: Unspecified
(54.1780°N, 0.0000°E)
Time: 20:34:10
(UTC+00:00)

Tiros 1 - Pass Details

Date: 18 June 2019
Orbit: 630 x 664 km, 48.4° (Epoch: 22 July)

Event Time Altitude Azimuth Distance (km) Brightness Sun altitude
Rises 23:49:24 0° 191° (S) 2,934 - -12.4°
Reaches altitude 10° 23:53:30 10° 156° (SSE) 2,021 - -12.4°
Maximum altitude 23:54:46 11° 140° (SE) 1,951 - -12.4°
Exits shadow 23:54:53 11° 139° (SE) 1,951 9.2 -12.4°
Drops below altitude 10° 23:56:03 10° 124° (SE) 2,019 9.4 -12.4°
Sets 00:00:07 0° 89° (E) 2,925 10.5 -12.4°
